Meteo pe oră la Dziewiatle

Astăzi, 9 Martie, Marţi

Timp Temperatura Precipitaţii Vânt Presiune Umiditate
00:00 -5°C° 0 mm 2 m/s 734 mmHg 77%
01:00 -5°C° 0 mm 2 m/s 734 mmHg 77%
02:00 -5°C° 0 mm 2 m/s 734 mmHg 77%
03:00 -5°C° 0 mm 2 m/s 734 mmHg 78%
04:00 -3°C° 0 mm 1 m/s 734 mmHg 78%
05:00 -3°C° 0 mm 1 m/s 734 mmHg 76%
06:00 -3°C° 0 mm 1 m/s 734 mmHg 74%
07:00 -3°C° 0 mm 1 m/s 734 mmHg 72%
08:00 -2°C° 0 mm 1 m/s 735 mmHg 65%
09:00 -1°C° 0 mm 1 m/s 735 mmHg 58%
10:00 0°C° 0 mm 1 m/s 735 mmHg 51%
11:00 +1°C° 0 mm 1 m/s 735 mmHg 48%
12:00 +1°C° 0 mm 1 m/s 735 mmHg 46%
13:00 +1°C° 0 mm 0 m/s 735 mmHg 43%
14:00 +1°C° 0 mm 0 m/s 734 mmHg 44%
15:00 +1°C° 0 mm 1 m/s 734 mmHg 45%
16:00 +1°C° 0 mm 1 m/s 734 mmHg 46%
17:00 0°C° 0 mm 1 m/s 734 mmHg 50%
18:00 -1°C° 0 mm 1 m/s 734 mmHg 54%
19:00 -2°C° 0 mm 1 m/s 734 mmHg 58%
20:00 -2°C° 0 mm 1 m/s 734 mmHg 60%
21:00 -2°C° 0 mm 1 m/s 734 mmHg 61%
22:00 -5°C° 0 mm 2 m/s 734 mmHg 63%
23:00 -3°C° 0 mm 1 m/s 734 mmHg 64%

Mâine, 10 Martie, Miercuri

Timp Temperatura Precipitaţii Vânt Presiune Umiditate
00:00 -3°C° 0 mm 1 m/s 734 mmHg 66%
01:00 -3°C° 0 mm 1 m/s 734 mmHg 67%
02:00 -3°C° 0 mm 1 m/s 734 mmHg 68%
03:00 -3°C° 0 mm 1 m/s 733 mmHg 68%
04:00 -3°C° 0 mm 1 m/s 733 mmHg 69%
05:00 -3°C° 0 mm 1 m/s 733 mmHg 68%
06:00 -3°C° 0 mm 1 m/s 734 mmHg 67%
07:00 -2°C° 0 mm 1 m/s 734 mmHg 65%
08:00 -1°C° 0 mm 1 m/s 734 mmHg 58%
09:00 0°C° 0 mm 1 m/s 734 mmHg 51%
10:00 +1°C° 0 mm 1 m/s 734 mmHg 44%
11:00 +2°C° 0 mm 1 m/s 734 mmHg 42%
12:00 +2°C° 0 mm 1 m/s 734 mmHg 40%
13:00 +3°C° 0 mm 1 m/s 734 mmHg 37%
14:00 +3°C° 0 mm 1 m/s 734 mmHg 38%
15:00 +2°C° 0 mm 1 m/s 734 mmHg 39%
16:00 +2°C° 0 mm 1 m/s 734 mmHg 40%
17:00 +1°C° 0 mm 1 m/s 734 mmHg 46%
18:00 0°C° 0 mm 1 m/s 734 mmHg 51%
19:00 -2°C° 0 mm 1 m/s 734 mmHg 57%
20:00 -2°C° 0 mm 1 m/s 734 mmHg 58%
21:00 -2°C° 0 mm 1 m/s 735 mmHg 59%
22:00 -2°C° 0 mm 1 m/s 735 mmHg 60%
23:00 -2°C° 0 mm 1 m/s 735 mmHg 60%

Poimâine, 11 Martie, Joi

Timp Temperatura Precipitaţii Vânt Presiune Umiditate
00:00 -3°C° 0 mm 1 m/s 735 mmHg 60%
01:00 -3°C° 0 mm 1 m/s 735 mmHg 60%
02:00 -3°C° 0 mm 1 m/s 734 mmHg 60%
03:00 -3°C° 0 mm 1 m/s 734 mmHg 61%
04:00 -3°C° 0 mm 1 m/s 734 mmHg 61%
05:00 -5°C° 0 mm 2 m/s 734 mmHg 61%
06:00 -4°C° 0 mm 2 m/s 733 mmHg 60%
07:00 -4°C° 0 mm 2 m/s 733 mmHg 59%
08:00 -4°C° 0 mm 3 m/s 733 mmHg 54%
09:00 -2°C° 0 mm 4 m/s 733 mmHg 49%
10:00 -1°C° 0 mm 5 m/s 733 mmHg 43%
11:00 0°C° 0 mm 5 m/s 732 mmHg 42%
12:00 0°C° 0 mm 5 m/s 732 mmHg 41%
13:00 +1°C° 0 mm 5 m/s 731 mmHg 40%
14:00 +1°C° 0 mm 5 m/s 730 mmHg 42%
15:00 +1°C° 0 mm 5 m/s 730 mmHg 45%
16:00 +1°C° 0 mm 5 m/s 729 mmHg 47%
17:00 0°C° 0.1 mm 5 m/s 728 mmHg 53%
18:00 0°C° 0.1 mm 5 m/s 728 mmHg 59%
19:00 -2°C° 0.1 mm 6 m/s 728 mmHg 65%
20:00 -2°C° 0.6 mm 6 m/s 727 mmHg 75%
21:00 -2°C° 0.6 mm 6 m/s 727 mmHg 84%
22:00 -3°C° 0.6 mm 7 m/s 726 mmHg 94%
23:00 -2°C° 0.2 mm 6 m/s 726 mmHg 90%

12 Martie, Vineri

Timp Temperatura Precipitaţii Vânt Presiune Umiditate
00:00 -1°C° 0.2 mm 5 m/s 725 mmHg 86%
01:00 0°C° 0.2 mm 5 m/s 725 mmHg 82%
02:00 0°C° 0.3 mm 5 m/s 724 mmHg 85%
03:00 0°C° 0.3 mm 5 m/s 724 mmHg 87%
04:00 0°C° 0.3 mm 5 m/s 724 mmHg 90%
05:00 +1°C° 0.4 mm 5 m/s 724 mmHg 91%
06:00 +1°C° 0.4 mm 5 m/s 725 mmHg 91%
07:00 +1°C° 0.4 mm 5 m/s 725 mmHg 92%
08:00 +2°C° 0.1 mm 6 m/s 726 mmHg 83%
09:00 +3°C° 0.1 mm 7 m/s 726 mmHg 74%
10:00 +5°C° 0.1 mm 8 m/s 726 mmHg 65%
11:00 +5°C° 0.1 mm 9 m/s 727 mmHg 65%
12:00 +5°C° 0.1 mm 9 m/s 727 mmHg 64%
13:00 +3°C° 0.1 mm 9 m/s 728 mmHg 63%
14:00 +4°C° 0 mm 8 m/s 728 mmHg 62%
15:00 +4°C° 0 mm 6 m/s 728 mmHg 62%
16:00 +5°C° 0 mm 5 m/s 728 mmHg 61%
17:00 +4°C° 0 mm 4 m/s 728 mmHg 66%
18:00 +3°C° 0 mm 2 m/s 728 mmHg 71%
19:00 +3°C° 0 mm 1 m/s 728 mmHg 76%
20:00 +3°C° 0 mm 1 m/s 728 mmHg 77%
21:00 +2°C° 0 mm 2 m/s 728 mmHg 78%
22:00 +1°C° 0 mm 2 m/s 728 mmHg 79%
23:00 +1°C° 0 mm 2 m/s 728 mmHg 81%

13 Martie, Sâmbătă

Timp Temperatura Precipitaţii Vânt Presiune Umiditate
00:00 0°C° 0 mm 3 m/s 728 mmHg 83%
01:00 0°C° 0 mm 3 m/s 728 mmHg 84%
02:00 0°C° 0 mm 3 m/s 728 mmHg 85%
03:00 0°C° 0 mm 3 m/s 727 mmHg 85%
04:00 -1°C° 0 mm 3 m/s 727 mmHg 86%
05:00 -1°C° 0 mm 4 m/s 727 mmHg 84%
06:00 -1°C° 0 mm 4 m/s 727 mmHg 83%
07:00 0°C° 0 mm 4 m/s 727 mmHg 82%
08:00 +1°C° 0 mm 5 m/s 727 mmHg 77%
09:00 +3°C° 0 mm 6 m/s 727 mmHg 73%
10:00 +4°C° 0 mm 7 m/s 727 mmHg 68%
11:00 +4°C° 0.4 mm 6 m/s 727 mmHg 69%
12:00 +4°C° 0.4 mm 6 m/s 727 mmHg 69%
13:00 +4°C° 0.4 mm 6 m/s 727 mmHg 69%
14:00 +6°C° 0.1 mm 5 m/s 727 mmHg 67%
15:00 +6°C° 0.1 mm 5 m/s 727 mmHg 64%
16:00 +6°C° 0.1 mm 5 m/s 727 mmHg 61%
17:00 +5°C° 0 mm 4 m/s 727 mmHg 66%
18:00 +4°C° 0 mm 4 m/s 726 mmHg 71%
19:00 +3°C° 0 mm 4 m/s 726 mmHg 75%
20:00 +3°C° 0 mm 4 m/s 726 mmHg 76%
21:00 +2°C° 0 mm 5 m/s 726 mmHg 76%
22:00 +2°C° 0 mm 5 m/s 726 mmHg 77%
23:00 +2°C° 0 mm 5 m/s 726 mmHg 77%

14 Martie, Duminică

Timp Temperatura Precipitaţii Vânt Presiune Umiditate
00:00 +3°C° 0 mm 6 m/s 726 mmHg 77%
01:00 +3°C° 0 mm 6 m/s 725 mmHg 77%
02:00 +2°C° 0 mm 6 m/s 725 mmHg 79%
03:00 +2°C° 0 mm 5 m/s 724 mmHg 81%
04:00 +2°C° 0 mm 5 m/s 724 mmHg 83%
05:00 +2°C° 0 mm 5 m/s 724 mmHg 82%
06:00 +2°C° 0 mm 5 m/s 724 mmHg 82%
07:00 +2°C° 0 mm 6 m/s 723 mmHg 82%
08:00 +4°C° 0 mm 6 m/s 723 mmHg 76%
09:00 +5°C° 0 mm 6 m/s 723 mmHg 71%
10:00 +8°C° 0 mm 7 m/s 723 mmHg 65%
11:00 +8°C° 0.1 mm 6 m/s 723 mmHg 65%
12:00 +8°C° 0.1 mm 6 m/s 723 mmHg 65%
13:00 +8°C° 0.1 mm 5 m/s 723 mmHg 65%
14:00 +8°C° 0.2 mm 5 m/s 723 mmHg 62%
15:00 +7°C° 0.2 mm 5 m/s 723 mmHg 60%
16:00 +7°C° 0.2 mm 4 m/s 723 mmHg 58%
17:00 +6°C° 0 mm 4 m/s 723 mmHg 60%
18:00 +5°C° 0 mm 3 m/s 724 mmHg 63%
19:00 +4°C° 0 mm 3 m/s 724 mmHg 65%
20:00 +3°C° 0 mm 3 m/s 725 mmHg 68%
21:00 +3°C° 0 mm 3 m/s 725 mmHg 71%
22:00 +4°C° 0 mm 2 m/s 725 mmHg 74%
23:00 +3°C° 0 mm 2 m/s 725 mmHg 76%
Arată mai mult

Formular de consimțământ

Meteoprog și furnizorii noștri de servicii pot stoca și accesa date personale, precum cookies, identificatori de dispozitiv sau alte tehnologii similare pe dispozitivul dumneavoastră și procesa astfel de date pentru a personaliza conținutul și reclamele, dar și pentru a oferi caracteristici de social media și pentru a analiza traficul.

  • Stocarea și/sau accesarea informațiilor pe dispozitivul dumneavoastră

    Cookies, identificatori de dispozitiv sau alte informații pot fi stocate sau accesate pe dispozitiv în scopurile indicate mai sus.

  • Reclame și conținut personalizat, evaluarea reclamelor și a conținutului, informații despre audiențe și dezvoltarea produselor

    Reclamele și conținutul pot fi personalizate pe baza unui profil. Pot fi adăugate date suplimentare pentru a personaliza mai bine reclamele și conținutul. Performanța reclamelor și conținutului poate fi măsurată. Pot fi obținute informații despre utilizatorii care au văzut reclamele și conținutul. Aceste date pot fi utilizate pentru a dezvolta sau îmbunătăți experiența utilizatorilor, sistemele și software-ul.

Dând clic pe ‘Sunt de acord’, permiteți utilizarea cookie-urilor menționate, a identificatorilor de dispozitiv, balizelor web sau altor tehnologii similare. Setările pot fi modificate din browser-ul dispozitivului dumneavoastră.

În anumite scopuri, interesele legitime pot prima asupra consimțământului. Puteți citi mai multe informații în acest sens în Politica privind Confidențialitatea Datelor și Cookie.